Regional Weather Roundup
Issued by NWS

Home | Current Version | Previous Version | Graphics & Text | Print | Product List | Glossary On
Versions: 1 2 3 4 5 6 7 8 9 10 11 12 13 14 15 16 17 18 19 20 21 22 23 24 25 26 27 28 29 30 31 32 33 34 35 36 37 38 39 40 41 42 43 44 45 46 47 48 49 50
000
ASUS43 KMPX 090201
RWRMN
WEATHER ROUNDUP FOR MINNESOTA
NATIONAL WEATHER SERVICE TWIN CITIES/CHANHASSEN MN
800 PM CST MON FEB 08 2016


NOTE: "FAIR" INDICATES FEW OR NO CLOUDS BELOW 12,000 FEET WITH NO
SIGNIFICANT WEATHER AND/OR OBSTRUCTIONS TO VISIBILITY. N/A MEANS
CURRENT SKY AND/OR WEATHER CONDITIONS ARE NOT AVAILABLE.

MNZ060>063-068>070-090300-
   Twin Cities Metro

CITY           SKY/WX    TMP DP  RH WIND       PRES   REMARKS
TWIN CITIES    FLURRIES  14   7  73 NW20      29.97S WCI  -3
ST PAUL        FLURRIES  15   6  67 N20       29.98S WCI  -2
CRYSTAL        FLURRIES  15   6  67 NW18G26   29.97S WCI  -2
BLAINE         LGT SNOW  16   9  73 NW17G25   29.96S BLWGSNOWWCI   0
LAKEVILLE      LGT SNOW  12   9  85 NW16G23   29.95S WCI  -4
EDEN PRAIRIE   CLOUDY    16   6  65 N21       29.96F WCI  -1
SOUTH ST PAUL  FLURRIES  16   6  65 N15G22    29.96S WCI   1
LAKE ELMO      LGT SNOW  14   9  79 N16G29    29.96S WCI  -2
$$
MNZ001>005-007-008-013>017-022>024-027-028-090300-
   Northwest Minnesota

CITY           SKY/WX    TMP DP  RH WIND       PRES   REMARKS
BEMIDJI        CLOUDY     7   1  78 NW17      30.06F WCI -12
HALLOCK        CLOUDY     9   3  78 N14       30.24S WCI  -8
ROSEAU         PTCLDY     7   0  72 N13       30.17R WCI  -9
WARROAD        CLOUDY     7   0  72 NW8G16    30.15S WCI  -6
CROOKSTON      CLEAR      9   3  78 N23       30.22S WCI -12
FOSSTON        CLOUDY     7   1  78 N22G30    30.13S FOG     WCI -14
DETROIT LAKES  CLOUDY    10   5  79 N25G31    30.12S FOG     WCI -10
MOORHEAD       CLOUDY     9   3  78 N21       30.20F WCI -11
PARK RAPIDS    CLOUDY     9   1  70 N21       30.04S WCI -11
MAHNOMEN       CLOUDY     8   4  85 N22       30.13S FOG     WCI -13
$$
MNZ006-009>011-018-025>026-090300-
   North Central Minnesota

CITY           SKY/WX    TMP DP  RH WIND       PRES   REMARKS
BAUDETTE       CLOUDY     5  -2  72 N18G25    30.09S WCI -15
FLAG ISLAND    CLOUDY     3   0  85 N16       30.13F WCI -16
INTL FALLS     CLOUDY     4  -3  73 NW16      30.05S WCI -15
WASKISH        CLOUDY     7   1  78 NW12G18   30.09S WCI  -9
LONGVILLE      FLURRIES   9   1  72 N13G20    30.03R WCI  -7
GRAND RAPIDS   CLOUDY     5  -4  66 N26       29.99S WCI -18
CRANE LAKE     CLOUDY     3   0  85 NW10      30.02R WCI -12
ORR            CLOUDY     3  -2  78 NW10G21   29.97R WCI -12
COOK           CLOUDY     3   0  85 NW8G17    29.98S WCI -10
WALKER         CLOUDY     7   1  73 NW14G24   30.04S WCI  -9
$$
MNZ012-019>021-037-090300-
   Northeast Minnesota

CITY           SKY/WX    TMP DP  RH WIND       PRES   REMARKS
DULUTH         LGT SNOW   6  -1  73 NW22G33   29.88F BLWGSNOWWCI -15
ELY            FLURRIES   3   0  85 NW13      29.92R WCI -14
HIBBING        FLURRIES   3  -2  79 NW17G28   29.96S WCI -17
EVELETH        FLURRIES   7   0  72 NW9G21    29.95S WCI  -7
DULUTH HARBOR  CLOUDY    10   1  67 NW17G23   29.99R WCI  -7
TWO HARBORS    CLOUDY    10   1  67 NW9G17    29.89S WCI  -2
SILVER BAY     CLOUDY     9   1  72 NW8       29.88R WCI  -4
GRAND MARAIS     N/A     10   1  67 N10G25    29.87R WCI  -4
G MARAIS ARPRT LGT SNOW   3  -4  72 NW18G32   29.76S WCI -17
$$
MNZ029>031-032-039>041-046>048-054>057-064-090300-
   West Central Minnesota

CITY           SKY/WX    TMP DP  RH WIND       PRES   REMARKS
FERGUS FALLS   CLOUDY     9   1  72 N26G33    30.16F WCI -13
WHEATON        LGT SNOW  12   9  85 N20G29    30.19F WCI  -6
MORRIS         CLOUDY    10   3  72 N29G38    30.11S WCI -11
ALEXANDRIA     CLOUDY     9   1  70 NW18G32   30.05F WCI -10
ELBOW LAKE     MOCLDY     8   1  72 NW20G25   30.12F WCI -11
WADENA         CLOUDY     9   1  72 NW17G26   30.05S WCI -10
GLENWOOD       CLOUDY    10   3  72 NW22G29   30.04F WCI  -9
APPLETON       CLOUDY    12   5  73 N22G33    30.15S WCI  -7
BENSON         PTCLDY     9   0  66 N22G30    30.11R WCI -11
ORTONVILLE     CLOUDY    10   5  79 N22G28    30.14F WCI  -9
MADISON        CLOUDY    12   7  79 N21G26    30.15R WCI  -6
WILLMAR        CLOUDY    12   5  73 NW25G32   30.07S WCI  -8
$$
MNZ033>034-036-042>043-049>051-058-059-090300-
   Central Minnesota

CITY           SKY/WX    TMP DP  RH WIND       PRES   REMARKS
ST CLOUD       CLOUDY    12   2  64 N18G29    30.00S WCI  -6
SAUK CENTRE    CLOUDY    10   5  78 NW15G25   30.04R WCI  -6
PAYNESVILLE    CLOUDY    12   6  76 NW18G25   30.04S WCI  -6
AITKIN         FLURRIES  12   0  57 NW14G25   29.98S WCI  -3
PINE RIVER     FLURRIES   9   1  72 NW10G22   30.06S WCI  -6
BRAINERD       LGT SNOW   9   1  70 N22G31    30.01S WCI -11
STAPLES        CLOUDY     9   1  72 NW16      30.04S WCI  -9
LONG PRAIRIE   CLOUDY    10   3  72 NW18G25   30.03S WCI  -8
LITTLE FALLS   CLOUDY    12   1  62 NW13G23   30.03S WCI  -3
LITCHFIELD     MOCLDY    12   7  79 NW22G29   30.01F WCI  -7
BUFFALO        FLURRIES  13   5  68 NW10G24   30.01S WCI   0
MAPLE LAKE     CLOUDY    14   7  72 NW22      30.01S WCI  -4
$$
MNZ037-044-045-052-053-090300-
   East Central Minnesota

CITY           SKY/WX    TMP DP  RH WIND       PRES   REMARKS
PRINCETON      FLURRIES  14   5  67 NW15G22   29.98F WCI  -1
MORA           FLURRIES  12   3  67 NW16G24   29.98F WCI  -4
CAMBRIDGE      FLURRIES  16   3  57 NW17G23   29.96S WCI   0
RUSH CITY      CLOUDY    12   4  70 NW14G20   29.97S WCI  -3
MOOSE LAKE     FLURRIES  10   1  67 N14G24    29.95S WCI  -5
HINCKLEY       FLURRIES  12   3  67 N16G25    29.96S WCI  -4
CLOQUET        FLURRIES   7   0  72 NW22G29   29.93F WCI -14
MCGREGOR       CLOUDY    10   3  72 N17G28    29.99R WCI  -7
$$
MNZ071>073-080-081-089-090-097-098-090300-
   Southwest Minnesota

CITY           SKY/WX    TMP DP  RH WIND       PRES   REMARKS
MONTEVIDEO     CLOUDY    10   5  79 N24G35    30.13R WCI -10
GRANITE FALLS  MOCLDY    13   6  74 NW24G35   30.13S WCI  -6
CANBY          LGT SNOW  17  13  85 N17       30.14S WCI   1
MARSHALL       CLOUDY    12   7  80 N30G37    30.09S WCI -10
REDWOOD FALLS  PTCLDY    12   2  64 NW18G32   30.07F WCI  -6
OLIVIA         PTCLDY    12   5  73 NW20G25   30.06R WCI  -6
PIPESTONE      FLURRIES  18   7  62 N12G20    30.07S WCI   5
WINDOM         CLEAR     12   7  79 NW31G37   30.03F HAZE    WCI -10
WORTHINGTON    MOCLDY    12   7  79 N24       30.05F WCI  -8
JACKSON        CLOUDY    12   9  85 NW25G31   30.01F WCI  -8
TRACY          LGT SNOW  14   9  82 N23G29    30.08S WCI  -5
SLAYTON        LGT SNOW  13  11  91 NW20G25   30.05F WCI  -5
$$
MNZ065>067-074>077-082>085-091>093-090300-
   South Central Minnesota

CITY           SKY/WX    TMP DP  RH WIND       PRES   REMARKS
MANKATO        CLOUDY   N/A N/A N/A NW24G35   29.98S
NEW ULM        CLOUDY    10   3  72 NW28      30.00F WCI -11
ST JAMES       CLEAR     12   7  79 NW28      30.03F WCI  -9
FAIRMONT       CLOUDY    12   3  67 NW30      29.99S WCI  -9
GLENCOE        CLOUDY    15   8  75 NW18G24   30.00S WCI  -2
FARIBAULT      LGT SNOW  14   9  79 NW13G22   29.95F WCI   0
OWATONNA       LGT SNOW  14   9  79 NW20      29.94S WCI  -3
WASECA         FLURRIES  14   9  79 NW21G29   29.97S WCI  -4
ALBERT LEA     LGT SNOW  14   9  79 NW15G22   29.92F WCI  -1
$$
MNZ078>079-086>088-094>096-090300-
   Southeast Minnesota

CITY           SKY/WX    TMP DP  RH WIND       PRES   REMARKS
ROCHESTER      LGT SNOW  13   8  81 NW22      29.88F WCI  -6
RED WING       FLURRIES  16   9  73 N7        29.94S WCI   6
STANTON        LGT SNOW  16   9  74 N17G25    29.93F WCI   0
DODGE CENTER   LGT SNOW  12   9  85 NW17G23   29.89F WCI  -5
WINONA         CLOUDY    18  12  79 NW10      29.92F WCI   6
AUSTIN         FLURRIES  14   9  79 NW17G29   29.90F WCI  -3
PRESTON        LGT SNOW  12   8  83 NW14      29.88F WCI  -3
$$
ABBREVIATIONS USED IN REMARKS
   TC - TEMPERATURES IN CELSIUS
  WCI - WIND CHILL INDEX
   HX - HEAT INDEX
  VSB - VISIBILITY
$$



USA.gov is the U.S. government's official web portal to all federal, state and local government web resources and services.